{"data":{"norad_id":39769,"intl_designator":"2014-029D","name":"RISING 2","alt_names":[],"object_type":"PAYLOAD","status":"ACTIVE","operator":null,"country":"JPN","launch_date":"2014-05-24","launch_site_code":"TANSC","launch_vehicle":null,"mission":null,"orbit_class":"UNKNOWN","rcs_meters":0.301,"size_class":null,"mass_kg":null,"dimensions":null,"purposes":[],"wikipedia_slug":null,"has_3d_model":false,"image_url":null,"decayed_at":null,"tle_current":{"epoch":"2026-05-25T04:08:31.729344Z","epoch_age_seconds":56009,"freshness":"FRESH","line1":"1 39769U 14029D   26145.17258946  .00004499  00000+0  38322-3 0  9996","line2":"2 39769  97.6526 214.1204 0003651  33.3781 326.7671 14.98261182650101","mean_motion":14.98261182,"eccentricity":0.0003651,"inclination_deg":97.6526,"raan_deg":214.1204,"arg_perigee_deg":33.3781,"mean_anomaly_deg":326.7671,"bstar":0.00038322,"rev_number":65010,"period_min":96.111413503871,"perigee_km":569.73111995251,"apogee_km":574.8063062042,"semimajor_km":6950.4057130784,"source":"CELESTRAK","updated_at":"2026-05-25T13:37:55.439444Z"}}}